Weather History for KGLY - February, 2013

Change the Weather History Date:

Thursday, February 21, 2013

  Actual Average (KDMO) Record (KDMO)
Temperature  
Mean Temperature 28 °F 38 °F  
Max Temperature 32 °F 48 °F - ()
Min Temperature 24 °F 28 °F - ()
Degree Days  
Heating Degree Days 37 27  
Month to date heating degree days 624  
Since 1 July heating degree days 3439  
Cooling Degree Days 0 0  
Month to date cooling degree days 0  
Year to date cooling degree days 0  
Moisture  
Dew Point 25 °F    
Average Humidity 85    
Maximum Humidity 100    
Minimum Humidity 60    
Precipitation  
Precipitation 0.00 in 0.07 in - ()
Month to date precipitation 1.47  
Year to date precipitation 3.14  
Sea Level Pressure  
Sea Level Pressure 29.92 in    
Wind  
Wind Speed 11 mph (East)    
Max Wind Speed 21 mph    
Max Gust Speed 28 mph    
Visibility 5 miles    
Events Rain , Snow , Thunderstorm    
T = Trace of Precipitation, MM = Missing Value Source: NWS Daily Summary

Daily Weather History Graph

Daily Weather History Graph

Search for Another Location

Airport or City:

Trip Planner

Search our weather history database for the weather conditions in past years. The results will help you decide how hot, cold, wet, or windy it might be!

Date:

Astronomy

Feb. 21, 2013 Rise Set
Actual Time 6:57 AM CST 5:59 PM CST
Civil Twilight 6:30 AM CST 6:26 PM CST
Nautical Twilight 5:59 AM CST 6:57 PM CST
Astronomical Twilight 5:29 AM CST 7:28 PM CST
Moon 2:17 PM CST (2/21) 4:00 AM CST (2/21)
Length of Visible Light 11h 56m
Length of Day
11h 02m
Waxing Gibbous, 84% of the Moon is Illuminated
Feb 21
Waxing Gibbous
Feb 25
Full
Mar 4
Last Quarter
Mar 11
New
Mar 19
First Quarter

Hourly Weather History & Observations

Time (CST) Temp. Windchill Dew Point Humidity Pressure Visibility Wind Dir Wind Speed Gust Speed Precip Events Conditions
12:15 AM 30.2 °F 21.3 °F 17.6 °F 60% 30.21 in 10.0 mi East 10.4 mph - N/A   Overcast
12:35 AM 30.2 °F 21.9 °F 17.6 °F 60% 30.19 in 10.0 mi East 9.2 mph - N/A   Overcast
12:55 AM 30.2 °F 21.9 °F 17.6 °F 60% 30.17 in 10.0 mi East 9.2 mph - N/A   Overcast
1:15 AM 30.2 °F 20.8 °F 17.6 °F 60% 30.19 in 10.0 mi ENE 11.5 mph - N/A   Overcast
1:35 AM 30.2 °F 21.3 °F 17.6 °F 60% 30.19 in 10.0 mi East 10.4 mph - N/A   Overcast
1:55 AM 30.2 °F 20.2 °F 17.6 °F 60% 30.16 in 10.0 mi East 12.7 mph - N/A   Overcast
2:15 AM 30.2 °F 19.8 °F 17.6 °F 60% 30.14 in 10.0 mi East 13.8 mph - N/A   Overcast
2:35 AM 30.2 °F 20.8 °F 17.6 °F 60% 30.12 in 10.0 mi East 11.5 mph 17.3 mph N/A   Overcast
2:55 AM 30.2 °F 19.8 °F 17.6 °F 60% 30.10 in 10.0 mi East 13.8 mph 18.4 mph N/A   Overcast
3:15 AM 30.2 °F 21.3 °F 17.6 °F 60% 30.10 in 10.0 mi East 10.4 mph 17.3 mph N/A   Overcast
3:35 AM 30.2 °F 19.8 °F 17.6 °F 60% 30.10 in 10.0 mi East 13.8 mph - N/A   Mostly Cloudy
4:15 AM 30.2 °F 18.9 °F 17.6 °F 60% 30.08 in 10.0 mi East 16.1 mph 19.6 mph N/A   Mostly Cloudy
4:35 AM 30.2 °F 21.3 °F 17.6 °F 60% 30.07 in 10.0 mi East 10.4 mph - N/A   Overcast
4:55 AM 28.4 °F 18.0 °F 17.6 °F 64% 30.05 in 10.0 mi ENE 12.7 mph 17.3 mph N/A   Mostly Cloudy
5:15 AM 28.4 °F 17.0 °F 17.6 °F 64% 30.05 in 10.0 mi East 15.0 mph 18.4 mph N/A   Overcast
5:35 AM 28.4 °F 18.0 °F 17.6 °F 64% 30.07 in 7.0 mi ENE 12.7 mph - N/A Snow Light Snow
5:55 AM 28.4 °F 22.2 °F 19.4 °F 69% 30.08 in 2.0 mi ESE 5.8 mph - N/A Snow Light Snow
6:15 AM 26.6 °F 15.7 °F 21.2 °F 80% 30.05 in 0.8 mi ENE 12.7 mph - N/A Snow Snow
6:35 AM 26.6 °F 15.2 °F 23.0 °F 86% 30.05 in 0.5 mi ENE 13.8 mph - N/A Snow Snow
6:55 AM 26.6 °F 14.7 °F 23.0 °F 86% 30.01 in 0.5 mi ENE 15.0 mph 21.9 mph N/A Snow Light Snow
7:15 AM 24.8 °F 11.5 °F 23.0 °F 93% 29.96 in 0.8 mi ENE 17.3 mph - N/A Snow Light Snow
7:35 AM 24.8 °F 11.5 °F 23.0 °F 93% 29.97 in 0.2 mi ENE 17.3 mph - N/A Snow Light Snow
7:55 AM 26.6 °F 14.7 °F 23.0 °F 86% 29.99 in 0.8 mi East 15.0 mph 23.0 mph N/A Snow , Thunderstorm Light Snow
8:15 AM 26.6 °F 15.2 °F 23.0 °F 86% 29.97 in 0.2 mi ENE 13.8 mph - N/A Snow , Thunderstorm Light Snow
8:35 AM 26.6 °F 16.8 °F 23.0 °F 86% 29.99 in 0.5 mi NE 10.4 mph - N/A Snow , Thunderstorm Light Snow
8:55 AM 26.6 °F 16.8 °F 23.0 °F 86% 30.03 in 0.8 mi NE 10.4 mph - N/A Thunderstorm Overcast
9:15 AM 26.6 °F 15.7 °F 23.0 °F 86% 30.01 in 0.8 mi ENE 12.7 mph 21.9 mph N/A Rain , Thunderstorm Light Freezing Rain
9:35 AM 26.6 °F 14.3 °F 23.0 °F 86% 29.99 in 1.0 mi ENE 16.1 mph 25.3 mph N/A Rain Light Freezing Rain
9:55 AM 26.6 °F 13.8 °F 23.0 °F 86% 29.98 in 0.8 mi East 17.3 mph 23.0 mph N/A Snow Light Snow
10:15 AM 26.6 °F 12.7 °F 23.0 °F 86% 29.96 in 1.0 mi ENE 20.7 mph 26.5 mph N/A Snow Light Snow
10:35 AM 26.6 °F 13.8 °F 23.0 °F 86% 29.95 in 1.0 mi East 17.3 mph 27.6 mph N/A   Overcast
10:55 AM 26.6 °F 14.3 °F 23.0 °F 86% 29.96 in 1.5 mi East 16.1 mph 23.0 mph N/A   Overcast
11:15 AM 26.6 °F 15.2 °F 23.0 °F 86% 29.93 in 2.0 mi East 13.8 mph - N/A   Overcast
11:35 AM 28.4 °F 16.2 °F 24.8 °F 86% 29.91 in 2.5 mi East 17.3 mph 20.7 mph N/A   Mostly Cloudy
11:55 AM 28.4 °F 15.4 °F 24.8 °F 86% 29.89 in 1.5 mi East 19.6 mph 23.0 mph N/A   Overcast
12:15 PM 28.4 °F 17.5 °F 26.6 °F 93% 29.88 in 2.0 mi East 13.8 mph 20.7 mph N/A   Overcast
12:35 PM 28.4 °F 19.7 °F 26.6 °F 93% 29.90 in 3.0 mi East 9.2 mph 16.1 mph N/A   Overcast
12:55 PM 30.2 °F 19.3 °F 26.6 °F 86% 29.88 in 1.8 mi East 15.0 mph 18.4 mph N/A   Light Freezing Rain
1:15 PM 30.2 °F 18.5 °F 26.6 °F 86% 29.85 in 7.0 mi East 17.3 mph 21.9 mph N/A   Overcast
1:35 PM 30.2 °F 20.2 °F 26.6 °F 86% 29.82 in 2.0 mi East 12.7 mph 19.6 mph N/A Rain Light Freezing Rain
1:55 PM 30.2 °F 19.8 °F 26.6 °F 86% 29.84 in 3.0 mi East 13.8 mph 20.7 mph N/A   Overcast
2:15 PM 30.2 °F 20.8 °F 28.4 °F 93% 29.82 in 5.0 mi East 11.5 mph - N/A Rain Light Freezing Rain
2:35 PM 30.2 °F 18.1 °F 28.4 °F 93% 29.81 in 2.5 mi East 18.4 mph 26.5 mph N/A   Overcast
2:55 PM 30.2 °F 19.3 °F 28.4 °F 93% 29.80 in 3.0 mi East 15.0 mph 21.9 mph N/A   Overcast
3:15 PM 30.2 °F 19.8 °F 28.4 °F 93% 29.78 in 2.5 mi ESE 13.8 mph - N/A   Overcast
3:35 PM 30.2 °F 19.8 °F 28.4 °F 93% 29.78 in 2.5 mi East 13.8 mph 19.6 mph N/A   Overcast
3:55 PM 30.2 °F 19.8 °F 28.4 °F 93% 29.78 in 2.0 mi ESE 13.8 mph - N/A   Overcast
4:35 PM 30.2 °F 20.8 °F 28.4 °F 93% 29.77 in 2.0 mi ESE 11.5 mph 17.3 mph N/A   Overcast
4:55 PM 30.2 °F 20.2 °F 28.4 °F 93% 29.76 in 3.0 mi ESE 12.7 mph 18.4 mph N/A   Overcast
5:15 PM 30.2 °F 23.4 °F 28.4 °F 93% 29.76 in 3.0 mi ESE 6.9 mph 18.4 mph N/A   Overcast
5:35 PM 30.2 °F 21.3 °F 28.4 °F 93% 29.77 in 2.5 mi ESE 10.4 mph - N/A   Overcast
5:55 PM 30.2 °F 24.3 °F 28.4 °F 93% 29.78 in 1.8 mi ESE 5.8 mph - N/A   Overcast
6:15 PM 30.2 °F - 30.2 °F 100% 29.79 in 1.8 mi Calm Calm - N/A   Overcast
6:35 PM 30.2 °F - 30.2 °F 100% 29.77 in 1.8 mi Calm Calm - N/A   Overcast
6:55 PM 30.2 °F - 30.2 °F 100% 29.76 in 3.0 mi Calm Calm - N/A Snow Light Snow
7:15 PM 30.2 °F - 30.2 °F 100% 29.77 in 4.0 mi Calm Calm - N/A Snow Light Snow
7:35 PM 30.2 °F - 30.2 °F 100% 29.77 in 5.0 mi Calm Calm - N/A   Overcast
7:55 PM 30.2 °F - 30.2 °F 100% 29.77 in 7.0 mi Calm Calm - N/A   Overcast
8:15 PM 30.2 °F - 30.2 °F 100% 29.77 in 8.0 mi Calm Calm - N/A   Overcast
8:35 PM 32.0 °F - 30.2 °F 93% 29.77 in 9.0 mi Calm Calm - N/A   Overcast
8:55 PM 30.2 °F - 30.2 °F 100% 29.77 in 7.0 mi Calm Calm - N/A   Overcast
9:15 PM 30.2 °F - 30.2 °F 100% 29.76 in 7.0 mi Calm Calm - N/A   Overcast
9:35 PM 30.2 °F - 30.2 °F 100% 29.77 in 6.0 mi Calm Calm - N/A   Overcast
9:55 PM 30.2 °F - 30.2 °F 100% 29.77 in 5.0 mi Calm Calm - N/A   Overcast
10:15 PM 30.2 °F - 30.2 °F 100% 29.77 in 5.0 mi Calm Calm - N/A   Overcast
10:35 PM 32.0 °F - 30.2 °F 93% 29.77 in 5.0 mi Calm Calm - N/A   Overcast
10:55 PM 32.0 °F - 32.0 °F 100% 29.77 in 5.0 mi Calm Calm - N/A   Overcast
11:15 PM 32.0 °F - 32.0 °F 100% 29.77 in 5.0 mi Calm Calm - N/A   Overcast
11:35 PM 32.0 °F - 32.0 °F 100% 29.77 in 5.0 mi Calm Calm - N/A   Overcast
11:55 PM 32.0 °F - 32.0 °F 100% 29.78 in 6.0 mi Calm Calm - N/A   Overcast